owner,sensor,date,latitude,longitude,vertical_datum,sea_water_practical_salinity,qcFlag 
SCCF RECON,ioos:station:SCCF:13:1,2016-04-01T00:00:00Z,26.5255,-82.0032,2.71,31.27,1111122 
SCCF RECON,ioos:station:SCCF:13:1,2016-04-01T01:00:00Z,26.5255,-82.0032,2.67,31.3,1111122 
SCCF RECON,ioos:station:SCCF:13:1,2016-04-01T02:00:00Z,26.5255,-82.0032,2.59,29.92,1111122 
SCCF RECON,ioos:station:SCCF:13:1,2016-04-01T03:00:00Z,26.5255,-82.0032,2.51,26.24,1111122 
SCCF RECON,ioos:station:SCCF:13:1,2016-04-01T04:00:00Z,26.5255,-82.0032,2.438,22.11,1111122 
SCCF RECON,ioos:station:SCCF:13:1,2016-04-01T05:00:00Z,26.5255,-82.0032,2.367,18.09,1111122 
SCCF RECON,ioos:station:SCCF:13:1,2016-04-01T06:00:00Z,26.5255,-82.0032,2.289,16.5,1111122 
SCCF RECON,ioos:station:SCCF:13:1,2016-04-01T07:00:00Z,26.5255,-82.0032,2.223,15.98,1111122 
SCCF RECON,ioos:station:SCCF:13:1,2016-04-01T08:00:00Z,26.5255,-82.0032,2.21,14.84,1111122 
SCCF RECON,ioos:station:SCCF:13:1,2016-04-01T09:00:00Z,26.5255,-82.0032,2.26,13.65,1111122 
SCCF RECON,ioos:station:SCCF:13:1,2016-04-01T10:00:00Z,26.5255,-82.0032,2.34,13.84,1111122 
SCCF RECON,ioos:station:SCCF:13:1,2016-04-01T11:00:00Z,26.5255,-82.0032,2.403,14.61,1111122 
SCCF RECON,ioos:station:SCCF:13:1,2016-04-01T12:00:00Z,26.5255,-82.0032,2.45,19.86,1111122 
SCCF RECON,ioos:station:SCCF:13:1,2016-04-01T13:00:00Z,26.5255,-82.0032,2.5,23.41,1111122 
SCCF RECON,ioos:station:SCCF:13:1,2016-04-01T14:00:00Z,26.5255,-82.0032,2.542,27.08,1111122 
SCCF RECON,ioos:station:SCCF:13:1,2016-04-01T15:00:00Z,26.5255,-82.0032,2.552,28.98,1111122 
SCCF RECON,ioos:station:SCCF:13:1,2016-04-01T16:00:00Z,26.5255,-82.0032,2.548,30.08,1111122 
SCCF RECON,ioos:station:SCCF:13:1,2016-04-01T17:00:00Z,26.5255,-82.0032,2.533,30.09,1111122 
SCCF RECON,ioos:station:SCCF:13:1,2016-04-01T18:00:00Z,26.5255,-82.0032,2.521,30.19,1111122 
SCCF RECON,ioos:station:SCCF:13:1,2016-04-01T19:00:00Z,26.5255,-82.0032,2.501,30.22,1111122 
SCCF RECON,ioos:station:SCCF:13:1,2016-04-01T20:00:00Z,26.5255,-82.0032,2.51,30.13,1111122 
SCCF RECON,ioos:station:SCCF:13:1,2016-04-01T21:00:00Z,26.5255,-82.0032,2.542,29.66,1111122 
SCCF RECON,ioos:station:SCCF:13:1,2016-04-01T22:00:00Z,26.5255,-82.0032,2.591,29.74,1111122 
SCCF RECON,ioos:station:SCCF:13:1,2016-04-01T23:00:00Z,26.5255,-82.0032,2.59,29.59,1111122 
SCCF RECON,ioos:station:SCCF:13:1,2016-04-02T00:00:00Z,26.5255,-82.0032,2.61,30.23,1111122 
SCCF RECON,ioos:station:SCCF:13:1,2016-04-02T01:00:00Z,26.5255,-82.0032,2.63,30.49,1111122 
SCCF RECON,ioos:station:SCCF:13:1,2016-04-02T02:00:00Z,26.5255,-82.0032,2.621,31.17,1111122 
SCCF RECON,ioos:station:SCCF:13:1,2016-04-02T03:00:00Z,26.5255,-82.0032,2.59,31.06,1111122 
SCCF RECON,ioos:station:SCCF:13:1,2016-04-02T04:00:00Z,26.5255,-82.0032,2.51,30.7,1111122 
SCCF RECON,ioos:station:SCCF:13:1,2016-04-02T05:00:00Z,26.5255,-82.0032,2.4,26.76,1111122 
SCCF RECON,ioos:station:SCCF:13:1,2016-04-02T06:00:00Z,26.5255,-82.0032,2.305,18.81,1111122 
SCCF RECON,ioos:station:SCCF:13:1,2016-04-02T07:00:00Z,26.5255,-82.0032,2.22,17.34,1111122 
SCCF RECON,ioos:station:SCCF:13:1,2016-04-02T08:00:00Z,26.5255,-82.0032,2.17,16.55,1111122 
SCCF RECON,ioos:station:SCCF:13:1,2016-04-02T09:00:00Z,26.5255,-82.0032,2.181,15.25,1111122 
SCCF RECON,ioos:station:SCCF:13:1,2016-04-02T10:00:00Z,26.5255,-82.0032,2.262,14.54,1111122 
SCCF RECON,ioos:station:SCCF:13:1,2016-04-02T11:00:00Z,26.5255,-82.0032,2.37,14.79,1111122 
SCCF RECON,ioos:station:SCCF:13:1,2016-04-02T12:00:00Z,26.5255,-82.0032,2.425,18.6,1111122 
SCCF RECON,ioos:station:SCCF:13:1,2016-04-02T13:00:00Z,26.5255,-82.0032,2.49,23.43,1111122 
SCCF RECON,ioos:station:SCCF:13:1,2016-04-02T14:00:00Z,26.5255,-82.0032,2.56,28.11,1111122 
SCCF RECON,ioos:station:SCCF:13:1,2016-04-02T15:00:00Z,26.5255,-82.0032,2.6,30.89,1111122 
SCCF RECON,ioos:station:SCCF:13:1,2016-04-02T16:00:00Z,26.5255,-82.0032,2.63,31.48,1111122 
SCCF RECON,ioos:station:SCCF:13:1,2016-04-02T17:00:00Z,26.5255,-82.0032,2.611,31.5,1111122 
SCCF RECON,ioos:station:SCCF:13:1,2016-04-02T18:00:00Z,26.5255,-82.0032,2.519,31.96,1111122 
SCCF RECON,ioos:station:SCCF:13:1,2016-04-02T19:00:00Z,26.5255,-82.0032,2.46,31.7,1111122 
SCCF RECON,ioos:station:SCCF:13:1,2016-04-02T20:00:00Z,26.5255,-82.0032,2.41,28.96,1111122 
SCCF RECON,ioos:station:SCCF:13:1,2016-04-02T21:00:00Z,26.5255,-82.0032,2.392,25.09,1111122 
SCCF RECON,ioos:station:SCCF:13:1,2016-04-02T22:00:00Z,26.5255,-82.0032,2.42,23.37,1111122 
SCCF RECON,ioos:station:SCCF:13:1,2016-04-02T23:00:00Z,26.5255,-82.0032,2.474,23.95,1111122 
SCCF RECON,ioos:station:SCCF:13:1,2016-04-03T00:00:00Z,26.5255,-82.0032,2.566,25.46,1111122 
SCCF RECON,ioos:station:SCCF:13:1,2016-04-03T01:00:00Z,26.5255,-82.0032,2.63,27.84,1111122 
SCCF RECON,ioos:station:SCCF:13:1,2016-04-03T02:00:00Z,26.5255,-82.0032,2.63,28.68,1111122 
SCCF RECON,ioos:station:SCCF:13:1,2016-04-03T03:00:00Z,26.5255,-82.0032,2.57,30.17,1111122 
SCCF RECON,ioos:station:SCCF:13:1,2016-04-03T04:00:00Z,26.5255,-82.0032,2.49,29.91,1111122 
SCCF RECON,ioos:station:SCCF:13:1,2016-04-03T05:00:00Z,26.5255,-82.0032,2.41,25.19,1111122 
SCCF RECON,ioos:station:SCCF:13:1,2016-04-03T06:00:00Z,26.5255,-82.0032,2.331,19.95,1111122 
SCCF RECON,ioos:station:SCCF:13:1,2016-04-03T07:00:00Z,26.5255,-82.0032,2.266,18.09,1111122 
SCCF RECON,ioos:station:SCCF:13:1,2016-04-03T08:00:00Z,26.5255,-82.0032,2.19,16.06,1111122 
SCCF RECON,ioos:station:SCCF:13:1,2016-04-03T09:00:00Z,26.5255,-82.0032,2.12,14.4,1111122 
SCCF RECON,ioos:station:SCCF:13:1,2016-04-03T10:00:00Z,26.5255,-82.0032,2.07,12.98,1111122 
SCCF RECON,ioos:station:SCCF:13:1,2016-04-03T11:00:00Z,26.5255,-82.0032,2.079,11.76,1111122 
SCCF RECON,ioos:station:SCCF:13:1,2016-04-03T12:00:00Z,26.5255,-82.0032,2.11,10.9,1111122 
SCCF RECON,ioos:station:SCCF:13:1,2016-04-03T13:00:00Z,26.5255,-82.0032,2.187,10.41,1111122 
SCCF RECON,ioos:station:SCCF:13:1,2016-04-03T14:00:00Z,26.5255,-82.0032,2.26,10.24,1111122 
SCCF RECON,ioos:station:SCCF:13:1,2016-04-03T15:00:00Z,26.5255,-82.0032,2.299,10.53,1111122 
SCCF RECON,ioos:station:SCCF:13:1,2016-04-03T16:00:00Z,26.5255,-82.0032,2.36,14.55,1111122 
SCCF RECON,ioos:station:SCCF:13:1,2016-04-03T17:00:00Z,26.5255,-82.0032,2.378,21.35,1111122 
SCCF RECON,ioos:station:SCCF:13:1,2016-04-03T18:00:00Z,26.5255,-82.0032,2.312,24.27,1111122 
SCCF RECON,ioos:station:SCCF:13:1,2016-04-03T19:00:00Z,26.5255,-82.0032,2.25,25.43,1111122 
SCCF RECON,ioos:station:SCCF:13:1,2016-04-03T20:00:00Z,26.5255,-82.0032,2.191,23.13,1111122 
SCCF RECON,ioos:station:SCCF:13:1,2016-04-03T21:00:00Z,26.5255,-82.0032,2.17,14.85,1111122 
SCCF RECON,ioos:station:SCCF:13:1,2016-04-03T22:00:00Z,26.5255,-82.0032,2.21,11.95,1111122 
SCCF RECON,ioos:station:SCCF:13:1,2016-04-03T23:00:00Z,26.5255,-82.0032,2.29,23.32,1111122 
SCCF RECON,ioos:station:SCCF:13:1,2016-04-04T00:00:00Z,26.5255,-82.0032,2.39,26.4,1111122 
SCCF RECON,ioos:station:SCCF:13:1,2016-04-04T01:00:00Z,26.5255,-82.0032,2.48,25.79,1111122 
SCCF RECON,ioos:station:SCCF:13:1,2016-04-04T02:00:00Z,26.5255,-82.0032,2.55,27.98,1111122 
SCCF RECON,ioos:station:SCCF:13:1,2016-04-04T03:00:00Z,26.5255,-82.0032,2.6,28.85,1111122 
SCCF RECON,ioos:station:SCCF:13:1,2016-04-04T04:00:00Z,26.5255,-82.0032,2.62,29.33,1111122 
SCCF RECON,ioos:station:SCCF:13:1,2016-04-04T05:00:00Z,26.5255,-82.0032,2.55,29.45,1111122 
SCCF RECON,ioos:station:SCCF:13:1,2016-04-04T06:00:00Z,26.5255,-82.0032,2.45,29.85,1111122 
SCCF RECON,ioos:station:SCCF:13:1,2016-04-04T07:00:00Z,26.5255,-82.0032,2.32,26.18,1111122 
SCCF RECON,ioos:station:SCCF:13:1,2016-04-04T08:00:00Z,26.5255,-82.0032,2.23,18.06,1111122 
SCCF RECON,ioos:station:SCCF:13:1,2016-04-04T09:00:00Z,26.5255,-82.0032,2.168,16.8,1111122 
SCCF RECON,ioos:station:SCCF:13:1,2016-04-04T10:00:00Z,26.5255,-82.0032,2.11,14.93,1111122 
SCCF RECON,ioos:station:SCCF:13:1,2016-04-04T11:00:00Z,26.5255,-82.0032,2.11,13.67,1111122 
SCCF RECON,ioos:station:SCCF:13:1,2016-04-04T12:00:00Z,26.5255,-82.0032,2.191,12.65,1111122 
SCCF RECON,ioos:station:SCCF:13:1,2016-04-04T13:00:00Z,26.5255,-82.0032,2.32,11.91,1111122 
SCCF RECON,ioos:station:SCCF:13:1,2016-04-04T14:00:00Z,26.5255,-82.0032,2.403,18.37,1111122 
SCCF RECON,ioos:station:SCCF:13:1,2016-04-04T15:00:00Z,26.5255,-82.0032,2.484,21.13,1111122 
SCCF RECON,ioos:station:SCCF:13:1,2016-04-04T16:00:00Z,26.5255,-82.0032,2.55,25.54,1111122 
SCCF RECON,ioos:station:SCCF:13:1,2016-04-04T17:00:00Z,26.5255,-82.0032,2.56,28.87,1111122 
SCCF RECON,ioos:station:SCCF:13:1,2016-04-04T18:00:00Z,26.5255,-82.0032,2.499,28.83,1111122 
SCCF RECON,ioos:station:SCCF:13:1,2016-04-04T19:00:00Z,26.5255,-82.0032,2.388,28.87,1111122 
SCCF RECON,ioos:station:SCCF:13:1,2016-04-04T20:00:00Z,26.5255,-82.0032,2.279,25.1,1111122 
SCCF RECON,ioos:station:SCCF:13:1,2016-04-04T21:00:00Z,26.5255,-82.0032,2.21,18.5,1111122 
SCCF RECON,ioos:station:SCCF:13:1,2016-04-04T22:00:00Z,26.5255,-82.0032,2.18,16.19,1111122 
SCCF RECON,ioos:station:SCCF:13:1,2016-04-04T23:00:00Z,26.5255,-82.0032,2.201,14.81,1111122 
SCCF RECON,ioos:station:SCCF:13:1,2016-04-05T00:00:00Z,26.5255,-82.0032,2.3,13.99,1111122 
SCCF RECON,ioos:station:SCCF:13:1,2016-04-05T01:00:00Z,26.5255,-82.0032,2.411,20.0,1111122 
SCCF RECON,ioos:station:SCCF:13:1,2016-04-05T02:00:00Z,26.5255,-82.0032,2.5,20.56,1111122 
SCCF RECON,ioos:station:SCCF:13:1,2016-04-05T03:00:00Z,26.5255,-82.0032,2.57,24.48,1111122 
SCCF RECON,ioos:station:SCCF:13:1,2016-04-05T04:00:00Z,26.5255,-82.0032,2.623,26.8,1111122 
SCCF RECON,ioos:station:SCCF:13:1,2016-04-05T05:00:00Z,26.5255,-82.0032,2.636,27.54,1111122 
SCCF RECON,ioos:station:SCCF:13:1,2016-04-05T06:00:00Z,26.5255,-82.0032,2.56,28.89,1111122 
SCCF RECON,ioos:station:SCCF:13:1,2016-04-05T07:00:00Z,26.5255,-82.0032,2.433,27.77,1111122 
SCCF RECON,ioos:station:SCCF:13:1,2016-04-05T08:00:00Z,26.5255,-82.0032,2.32,25.23,1111122 
SCCF RECON,ioos:station:SCCF:13:1,2016-04-05T09:00:00Z,26.5255,-82.0032,2.238,18.02,1111122 
SCCF RECON,ioos:station:SCCF:13:1,2016-04-05T10:00:00Z,26.5255,-82.0032,2.162,16.83,1111122 
SCCF RECON,ioos:station:SCCF:13:1,2016-04-05T11:00:00Z,26.5255,-82.0032,2.1,14.28,1111122 
SCCF RECON,ioos:station:SCCF:13:1,2016-04-05T12:00:00Z,26.5255,-82.0032,2.11,12.9,1111122 
SCCF RECON,ioos:station:SCCF:13:1,2016-04-05T13:00:00Z,26.5255,-82.0032,2.211,11.45,1111122 
SCCF RECON,ioos:station:SCCF:13:1,2016-04-05T14:00:00Z,26.5255,-82.0032,2.343,10.86,1111122 
SCCF RECON,ioos:station:SCCF:13:1,2016-04-05T15:00:00Z,26.5255,-82.0032,2.46,16.51,1111122 
SCCF RECON,ioos:station:SCCF:13:1,2016-04-05T16:00:00Z,26.5255,-82.0032,2.54,19.94,1111122 
SCCF RECON,ioos:station:SCCF:13:1,2016-04-05T17:00:00Z,26.5255,-82.0032,2.577,24.86,1111122 
SCCF RECON,ioos:station:SCCF:13:1,2016-04-05T18:00:00Z,26.5255,-82.0032,2.56,27.13,1111122 
SCCF RECON,ioos:station:SCCF:13:1,2016-04-05T19:00:00Z,26.5255,-82.0032,2.472,27.03,1111122 
SCCF RECON,ioos:station:SCCF:13:1,2016-04-05T20:00:00Z,26.5255,-82.0032,2.359,26.51,1111122 
SCCF RECON,ioos:station:SCCF:13:1,2016-04-05T21:00:00Z,26.5255,-82.0032,2.26,19.78,1111122 
SCCF RECON,ioos:station:SCCF:13:1,2016-04-05T22:00:00Z,26.5255,-82.0032,2.19,14.26,1111122 
SCCF RECON,ioos:station:SCCF:13:1,2016-04-05T23:00:00Z,26.5255,-82.0032,2.15,13.76,1111122 
SCCF RECON,ioos:station:SCCF:13:1,2016-04-06T00:00:00Z,26.5255,-82.0032,2.181,12.95,1111122 
SCCF RECON,ioos:station:SCCF:13:1,2016-04-06T01:00:00Z,26.5255,-82.0032,2.3,11.89,1111122 
SCCF RECON,ioos:station:SCCF:13:1,2016-04-06T02:00:00Z,26.5255,-82.0032,2.44,17.74,1111122 
SCCF RECON,ioos:station:SCCF:13:1,2016-04-06T03:00:00Z,26.5255,-82.0032,2.55,20.16,1111122 
SCCF RECON,ioos:station:SCCF:13:1,2016-04-06T04:00:00Z,26.5255,-82.0032,2.63,23.68,1111122 
SCCF RECON,ioos:station:SCCF:13:1,2016-04-06T05:00:00Z,26.5255,-82.0032,2.668,27.17,1111122 
SCCF RECON,ioos:station:SCCF:13:1,2016-04-06T06:00:00Z,26.5255,-82.0032,2.65,28.05,1111122 
SCCF RECON,ioos:station:SCCF:13:1,2016-04-06T07:00:00Z,26.5255,-82.0032,2.57,28.04,1111122 
SCCF RECON,ioos:station:SCCF:13:1,2016-04-06T08:00:00Z,26.5255,-82.0032,2.444,26.8,1111122 
SCCF RECON,ioos:station:SCCF:13:1,2016-04-06T09:00:00Z,26.5255,-82.0032,2.33,22.24,1111122 
SCCF RECON,ioos:station:SCCF:13:1,2016-04-06T10:00:00Z,26.5255,-82.0032,2.241,16.37,1111122 
SCCF RECON,ioos:station:SCCF:13:1,2016-04-06T11:00:00Z,26.5255,-82.0032,2.17,15.45,1111122 
SCCF RECON,ioos:station:SCCF:13:1,2016-04-06T12:00:00Z,26.5255,-82.0032,2.122,13.44,1111122 
SCCF RECON,ioos:station:SCCF:13:1,2016-04-06T13:00:00Z,26.5255,-82.0032,2.2,12.92,1111122 
SCCF RECON,ioos:station:SCCF:13:1,2016-04-06T14:00:00Z,26.5255,-82.0032,2.382,12.4,1111122 
SCCF RECON,ioos:station:SCCF:13:1,2016-04-06T15:00:00Z,26.5255,-82.0032,2.489,16.12,1111122 
SCCF RECON,ioos:station:SCCF:13:1,2016-04-06T16:00:00Z,26.5255,-82.0032,2.55,20.48,1111122 
SCCF RECON,ioos:station:SCCF:13:1,2016-04-06T17:00:00Z,26.5255,-82.0032,2.611,24.95,1111122 
SCCF RECON,ioos:station:SCCF:13:1,2016-04-06T18:00:00Z,26.5255,-82.0032,2.643,26.92,1111122 
SCCF RECON,ioos:station:SCCF:13:1,2016-04-06T19:00:00Z,26.5255,-82.0032,2.609,27.14,1111122 
SCCF RECON,ioos:station:SCCF:13:1,2016-04-06T20:00:00Z,26.5255,-82.0032,2.517,27.07,1111122 
SCCF RECON,ioos:station:SCCF:13:1,2016-04-06T21:00:00Z,26.5255,-82.0032,2.443,27.21,1111122 
SCCF RECON,ioos:station:SCCF:13:1,2016-04-06T22:00:00Z,26.5255,-82.0032,2.291,24.23,1111122 
SCCF RECON,ioos:station:SCCF:13:1,2016-04-06T23:00:00Z,26.5255,-82.0032,2.21,17.77,1111122 
SCCF RECON,ioos:station:SCCF:13:1,2016-04-07T00:00:00Z,26.5255,-82.0032,2.156,16.77,1111122 
SCCF RECON,ioos:station:SCCF:13:1,2016-04-07T01:00:00Z,26.5255,-82.0032,2.216,14.77,1111122 
SCCF RECON,ioos:station:SCCF:13:1,2016-04-07T02:00:00Z,26.5255,-82.0032,2.393,13.95,1111122 
SCCF RECON,ioos:station:SCCF:13:1,2016-04-07T03:00:00Z,26.5255,-82.0032,2.5,19.01,1111122 
SCCF RECON,ioos:station:SCCF:13:1,2016-04-07T04:00:00Z,26.5255,-82.0032,2.58,22.81,1111122 
SCCF RECON,ioos:station:SCCF:13:1,2016-04-07T05:00:00Z,26.5255,-82.0032,2.681,26.98,1111122 
SCCF RECON,ioos:station:SCCF:13:1,2016-04-07T06:00:00Z,26.5255,-82.0032,2.75,28.65,1111122 
SCCF RECON,ioos:station:SCCF:13:1,2016-04-07T07:00:00Z,26.5255,-82.0032,2.73,28.91,1111122 
SCCF RECON,ioos:station:SCCF:13:1,2016-04-07T08:00:00Z,26.5255,-82.0032,2.64,29.19,1111122 
SCCF RECON,ioos:station:SCCF:13:1,2016-04-07T09:00:00Z,26.5255,-82.0032,2.51,29.06,1111122 
SCCF RECON,ioos:station:SCCF:13:1,2016-04-07T10:00:00Z,26.5255,-82.0032,2.41,26.57,1111122 
SCCF RECON,ioos:station:SCCF:13:1,2016-04-07T11:00:00Z,26.5255,-82.0032,2.332,20.82,1111122 
SCCF RECON,ioos:station:SCCF:13:1,2016-04-07T12:00:00Z,26.5255,-82.0032,2.289,19.01,1111122 
SCCF RECON,ioos:station:SCCF:13:1,2016-04-07T13:00:00Z,26.5255,-82.0032,2.291,16.31,1111122 
SCCF RECON,ioos:station:SCCF:13:1,2016-04-07T14:00:00Z,26.5255,-82.0032,2.45,15.34,1111122 
SCCF RECON,ioos:station:SCCF:13:1,2016-04-07T15:00:00Z,26.5255,-82.0032,2.598,20.57,1111122 
SCCF RECON,ioos:station:SCCF:13:1,2016-04-07T16:00:00Z,26.5255,-82.0032,2.68,25.03,1111122 
SCCF RECON,ioos:station:SCCF:13:1,2016-04-07T17:00:00Z,26.5255,-82.0032,2.746,28.82,1111122 
SCCF RECON,ioos:station:SCCF:13:1,2016-04-07T18:00:00Z,26.5255,-82.0032,2.789,30.03,1111122 
SCCF RECON,ioos:station:SCCF:13:1,2016-04-07T19:00:00Z,26.5255,-82.0032,2.781,30.34,1111122 
SCCF RECON,ioos:station:SCCF:13:1,2016-04-07T20:00:00Z,26.5255,-82.0032,2.69,30.38,1111122 
SCCF RECON,ioos:station:SCCF:13:1,2016-04-07T21:00:00Z,26.5255,-82.0032,2.553,30.35,1111122 
SCCF RECON,ioos:station:SCCF:13:1,2016-04-07T22:00:00Z,26.5255,-82.0032,2.43,29.06,1111122 
SCCF RECON,ioos:station:SCCF:13:1,2016-04-07T23:00:00Z,26.5255,-82.0032,2.349,27.73,1111122 
SCCF RECON,ioos:station:SCCF:13:1,2016-04-08T00:00:00Z,26.5255,-82.0032,2.26,24.04,1111122 
SCCF RECON,ioos:station:SCCF:13:1,2016-04-08T01:00:00Z,26.5255,-82.0032,2.19,20.79,1111122 
SCCF RECON,ioos:station:SCCF:13:1,2016-04-08T02:00:00Z,26.5255,-82.0032,2.222,18.02,1111122 
SCCF RECON,ioos:station:SCCF:13:1,2016-04-08T03:00:00Z,26.5255,-82.0032,2.41,16.27,1111122 
SCCF RECON,ioos:station:SCCF:13:1,2016-04-08T04:00:00Z,26.5255,-82.0032,2.53,19.25,1111122 
SCCF RECON,ioos:station:SCCF:13:1,2016-04-08T05:00:00Z,26.5255,-82.0032,2.62,22.91,1111122 
SCCF RECON,ioos:station:SCCF:13:1,2016-04-08T06:00:00Z,26.5255,-82.0032,2.692,26.81,1111122 
SCCF RECON,ioos:station:SCCF:13:1,2016-04-08T07:00:00Z,26.5255,-82.0032,2.73,28.78,1111122 
SCCF RECON,ioos:station:SCCF:13:1,2016-04-08T08:00:00Z,26.5255,-82.0032,2.7,29.39,1111122 
SCCF RECON,ioos:station:SCCF:13:1,2016-04-08T09:00:00Z,26.5255,-82.0032,2.58,29.62,1111122 
SCCF RECON,ioos:station:SCCF:13:1,2016-04-08T10:00:00Z,26.5255,-82.0032,2.48,28.35,1111122 
SCCF RECON,ioos:station:SCCF:13:1,2016-04-08T11:00:00Z,26.5255,-82.0032,2.41,22.51,1111122 
SCCF RECON,ioos:station:SCCF:13:1,2016-04-08T12:00:00Z,26.5255,-82.0032,2.34,17.96,1111122 
SCCF RECON,ioos:station:SCCF:13:1,2016-04-08T13:00:00Z,26.5255,-82.0032,2.3,15.76,1111122 
SCCF RECON,ioos:station:SCCF:13:1,2016-04-08T14:00:00Z,26.5255,-82.0032,2.371,14.47,1111122 
SCCF RECON,ioos:station:SCCF:13:1,2016-04-08T15:00:00Z,26.5255,-82.0032,2.54,14.61,1111122 
SCCF RECON,ioos:station:SCCF:13:1,2016-04-08T16:00:00Z,26.5255,-82.0032,2.659,20.09,1111122 
SCCF RECON,ioos:station:SCCF:13:1,2016-04-08T17:00:00Z,26.5255,-82.0032,2.74,25.82,1111122 
SCCF RECON,ioos:station:SCCF:13:1,2016-04-08T18:00:00Z,26.5255,-82.0032,2.81,29.37,1111122 
SCCF RECON,ioos:station:SCCF:13:1,2016-04-08T19:00:00Z,26.5255,-82.0032,2.83,30.76,1111122 
SCCF RECON,ioos:station:SCCF:13:1,2016-04-08T20:00:00Z,26.5255,-82.0032,2.772,30.88,1111122 
SCCF RECON,ioos:station:SCCF:13:1,2016-04-08T21:00:00Z,26.5255,-82.0032,2.634,30.81,1111122 
SCCF RECON,ioos:station:SCCF:13:1,2016-04-08T22:00:00Z,26.5255,-82.0032,2.5,28.38,1111122 
SCCF RECON,ioos:station:SCCF:13:1,2016-04-08T23:00:00Z,26.5255,-82.0032,2.401,28.16,1111122 
SCCF RECON,ioos:station:SCCF:13:1,2016-04-09T00:00:00Z,26.5255,-82.0032,2.309,24.38,1111122 
SCCF RECON,ioos:station:SCCF:13:1,2016-04-09T01:00:00Z,26.5255,-82.0032,2.213,20.92,1111122 
SCCF RECON,ioos:station:SCCF:13:1,2016-04-09T02:00:00Z,26.5255,-82.0032,2.152,17.76,1111122 
SCCF RECON,ioos:station:SCCF:13:1,2016-04-09T03:00:00Z,26.5255,-82.0032,2.19,15.8,1111122 
SCCF RECON,ioos:station:SCCF:13:1,2016-04-09T04:00:00Z,26.5255,-82.0032,2.37,14.68,1111122 
SCCF RECON,ioos:station:SCCF:13:1,2016-04-09T05:00:00Z,26.5255,-82.0032,2.49,17.07,1111122 
SCCF RECON,ioos:station:SCCF:13:1,2016-04-09T06:00:00Z,26.5255,-82.0032,2.56,20.59,1111122 
SCCF RECON,ioos:station:SCCF:13:1,2016-04-09T07:00:00Z,26.5255,-82.0032,2.64,24.42,1111122 
SCCF RECON,ioos:station:SCCF:13:1,2016-04-09T08:00:00Z,26.5255,-82.0032,2.66,27.64,1111122 
SCCF RECON,ioos:station:SCCF:13:1,2016-04-09T09:00:00Z,26.5255,-82.0032,2.6,27.9,1111122 
SCCF RECON,ioos:station:SCCF:13:1,2016-04-09T10:00:00Z,26.5255,-82.0032,2.49,27.96,1111122 
SCCF RECON,ioos:station:SCCF:13:1,2016-04-09T11:00:00Z,26.5255,-82.0032,2.39,24.85,1111122 
SCCF RECON,ioos:station:SCCF:13:1,2016-04-09T12:00:00Z,26.5255,-82.0032,2.33,19.2,1111122 
SCCF RECON,ioos:station:SCCF:13:1,2016-04-09T13:00:00Z,26.5255,-82.0032,2.261,17.21,1111122 
SCCF RECON,ioos:station:SCCF:13:1,2016-04-09T14:00:00Z,26.5255,-82.0032,2.22,14.6,1111122 
SCCF RECON,ioos:station:SCCF:13:1,2016-04-09T15:00:00Z,26.5255,-82.0032,2.249,13.19,1111122 
SCCF RECON,ioos:station:SCCF:13:1,2016-04-09T16:00:00Z,26.5255,-82.0032,2.39,12.24,1111122 
SCCF RECON,ioos:station:SCCF:13:1,2016-04-09T17:00:00Z,26.5255,-82.0032,2.522,16.82,1111122 
SCCF RECON,ioos:station:SCCF:13:1,2016-04-09T18:00:00Z,26.5255,-82.0032,2.58,20.11,1111122 
SCCF RECON,ioos:station:SCCF:13:1,2016-04-09T19:00:00Z,26.5255,-82.0032,2.635,24.14,1111122 
SCCF RECON,ioos:station:SCCF:13:1,2016-04-09T20:00:00Z,26.5255,-82.0032,2.641,27.07,1111122 
SCCF RECON,ioos:station:SCCF:13:1,2016-04-09T21:00:00Z,26.5255,-82.0032,2.54,27.71,1111122 
SCCF RECON,ioos:station:SCCF:13:1,2016-04-09T22:00:00Z,26.5255,-82.0032,2.409,27.31,1111122 
SCCF RECON,ioos:station:SCCF:13:1,2016-04-09T23:00:00Z,26.5255,-82.0032,2.311,23.93,1111122 
SCCF RECON,ioos:station:SCCF:13:1,2016-04-10T00:00:00Z,26.5255,-82.0032,2.24,21.1,1111122 
SCCF RECON,ioos:station:SCCF:13:1,2016-04-10T01:00:00Z,26.5255,-82.0032,2.154,17.35,1111122 
SCCF RECON,ioos:station:SCCF:13:1,2016-04-10T02:00:00Z,26.5255,-82.0032,2.079,14.72,1111122 
SCCF RECON,ioos:station:SCCF:13:1,2016-04-10T03:00:00Z,26.5255,-82.0032,2.02,12.05,1111122 
SCCF RECON,ioos:station:SCCF:13:1,2016-04-10T04:00:00Z,26.5255,-82.0032,2.06,10.57,1111122 
SCCF RECON,ioos:station:SCCF:13:1,2016-04-10T05:00:00Z,26.5255,-82.0032,2.212,9.87,1111122 
SCCF RECON,ioos:station:SCCF:13:1,2016-04-10T06:00:00Z,26.5255,-82.0032,2.349,10.24,1111122 
SCCF RECON,ioos:station:SCCF:13:1,2016-04-10T07:00:00Z,26.5255,-82.0032,2.429,15.87,1111122 
SCCF RECON,ioos:station:SCCF:13:1,2016-04-10T08:00:00Z,26.5255,-82.0032,2.49,19.73,1111122 
SCCF RECON,ioos:station:SCCF:13:1,2016-04-10T09:00:00Z,26.5255,-82.0032,2.52,24.82,1111122 
SCCF RECON,ioos:station:SCCF:13:1,2016-04-10T10:00:00Z,26.5255,-82.0032,2.48,25.93,1111122 
SCCF RECON,ioos:station:SCCF:13:1,2016-04-10T11:00:00Z,26.5255,-82.0032,2.39,25.91,1111122 
SCCF RECON,ioos:station:SCCF:13:1,2016-04-10T12:00:00Z,26.5255,-82.0032,2.31,25.83,1111122 
SCCF RECON,ioos:station:SCCF:13:1,2016-04-10T13:00:00Z,26.5255,-82.0032,2.26,17.69,1111122 
SCCF RECON,ioos:station:SCCF:13:1,2016-04-10T14:00:00Z,26.5255,-82.0032,2.23,12.93,1111122 
SCCF RECON,ioos:station:SCCF:13:1,2016-04-10T15:00:00Z,26.5255,-82.0032,2.26,11.83,1111122 
SCCF RECON,ioos:station:SCCF:13:1,2016-04-10T16:00:00Z,26.5255,-82.0032,2.391,11.35,1111122 
SCCF RECON,ioos:station:SCCF:13:1,2016-04-10T17:00:00Z,26.5255,-82.0032,2.521,19.66,1111122 
SCCF RECON,ioos:station:SCCF:13:1,2016-04-10T18:00:00Z,26.5255,-82.0032,2.599,23.06,1111122 
SCCF RECON,ioos:station:SCCF:13:1,2016-04-10T19:00:00Z,26.5255,-82.0032,2.667,26.49,1111122 
SCCF RECON,ioos:station:SCCF:13:1,2016-04-10T20:00:00Z,26.5255,-82.0032,2.731,28.82,1111122 
SCCF RECON,ioos:station:SCCF:13:1,2016-04-10T21:00:00Z,26.5255,-82.0032,2.72,28.61,1111122 
SCCF RECON,ioos:station:SCCF:13:1,2016-04-10T22:00:00Z,26.5255,-82.0032,2.646,28.52,1111122 
SCCF RECON,ioos:station:SCCF:13:1,2016-04-10T23:00:00Z,26.5255,-82.0032,2.51,28.19,1111122 
SCCF RECON,ioos:station:SCCF:13:1,2016-04-11T00:00:00Z,26.5255,-82.0032,2.39,24.73,1111122 
SCCF RECON,ioos:station:SCCF:13:1,2016-04-11T01:00:00Z,26.5255,-82.0032,2.29,18.67,1111122 
SCCF RECON,ioos:station:SCCF:13:1,2016-04-11T02:00:00Z,26.5255,-82.0032,2.211,18.52,1111122 
SCCF RECON,ioos:station:SCCF:13:1,2016-04-11T03:00:00Z,26.5255,-82.0032,2.13,16.44,1111122 
SCCF RECON,ioos:station:SCCF:13:1,2016-04-11T04:00:00Z,26.5255,-82.0032,2.09,14.74,1111122 
SCCF RECON,ioos:station:SCCF:13:1,2016-04-11T05:00:00Z,26.5255,-82.0032,2.16,13.06,1111122 
SCCF RECON,ioos:station:SCCF:13:1,2016-04-11T06:00:00Z,26.5255,-82.0032,2.29,11.86,1111122 
SCCF RECON,ioos:station:SCCF:13:1,2016-04-11T07:00:00Z,26.5255,-82.0032,2.369,13.71,1111122 
SCCF RECON,ioos:station:SCCF:13:1,2016-04-11T08:00:00Z,26.5255,-82.0032,2.42,17.1,1111122 
SCCF RECON,ioos:station:SCCF:13:1,2016-04-11T09:00:00Z,26.5255,-82.0032,2.455,20.35,1111122 
SCCF RECON,ioos:station:SCCF:13:1,2016-04-11T10:00:00Z,26.5255,-82.0032,2.484,24.8,1111122 
SCCF RECON,ioos:station:SCCF:13:1,2016-04-11T11:00:00Z,26.5255,-82.0032,2.49,26.79,1111122 
SCCF RECON,ioos:station:SCCF:13:1,2016-04-11T12:00:00Z,26.5255,-82.0032,2.48,26.89,1111122 
SCCF RECON,ioos:station:SCCF:13:1,2016-04-11T13:00:00Z,26.5255,-82.0032,2.469,27.2,1111122 
SCCF RECON,ioos:station:SCCF:13:1,2016-04-11T14:00:00Z,26.5255,-82.0032,2.44,27.02,1111122 
SCCF RECON,ioos:station:SCCF:13:1,2016-04-11T15:00:00Z,26.5255,-82.0032,2.44,26.39,1111122 
SCCF RECON,ioos:station:SCCF:13:1,2016-04-11T16:00:00Z,26.5255,-82.0032,2.48,27.27,1111122 
SCCF RECON,ioos:station:SCCF:13:1,2016-04-11T17:00:00Z,26.5255,-82.0032,2.565,25.2,1111122 
SCCF RECON,ioos:station:SCCF:13:1,2016-04-11T18:00:00Z,26.5255,-82.0032,2.658,27.38,1111122 